Location: Newark
(41.4822°N, 81.6697°W)
Time: 21:20:45
(UTC+00:00)

OTV 5 (USA 277) - Visible Passes

Search period start: 19 August 2019 00:00
Search period end: 29 August 2019 00:00
Orbit: 305 x 329 km, 54.5° (Epoch: 11 August)

Date Brightness Start Highest point End Pass type
(mag) Time Alt. Az. Time Alt. Az. Time Alt. Az.
19 Aug ? 09:34:18 10° NNW 09:36:29 22° NNE 09:38:39 10° E visible
20 Aug ? 09:48:33 10° NW 09:51:09 54° NE 09:53:45 10° ESE visible
21 Aug ? 08:29:41 11° N 08:31:12 16° NNE 08:32:59 10° ENE visible
21 Aug ? 10:03:08 10° WNW 10:05:41 44° SW 10:08:14 10° SSE visible
22 Aug ? 08:45:19 28° N 08:45:57 32° NE 08:48:24 10° ESE visible
23 Aug ? 09:01:43 29° SE 09:01:43 29° SE 09:03:11 10° SE visible
24 Aug ? 01:18:02 10° SSW 01:20:26 32° SE 01:21:19 25° E visible
25 Aug ? 01:32:17 10° SW 01:34:56 75° NW 01:36:58 15° NE visible
26 Aug ? 01:47:14 10° W 01:49:34 27° NNW 01:51:55 10° NNE visible
27 Aug ? 02:02:47 10° WNW 02:04:20 14° NNW 02:05:54 10° N visible
28 Aug ? 00:41:47 10° WSW 00:44:21 43° NW 00:46:54 10° NE visible
